{"data":{"norad_id":68747,"intl_designator":"2026-082V","name":"STARLINK-37268","alt_names":[],"object_type":"PAYLOAD","status":"ACTIVE","operator":null,"country":"US","launch_date":"2026-04-15","launch_site_code":"AFWTR","launch_vehicle":null,"mission":null,"orbit_class":"UNKNOWN","rcs_meters":null,"size_class":null,"mass_kg":null,"dimensions":null,"purposes":["comms"],"wikipedia_slug":null,"has_3d_model":false,"image_url":null,"decayed_at":null,"tle_current":{"epoch":"2026-05-25T04:00:03.998880Z","epoch_age_seconds":71180,"freshness":"FRESH","line1":"1 68747U 26082V   26145.16671295 -.02087020  00000+0 -33375-1 0  9997","line2":"2 68747  97.2851   8.8288 0001886 104.1751 111.3841 15.56273006  6002","mean_motion":15.56273006,"eccentricity":0.0001886,"inclination_deg":97.2851,"raan_deg":8.8288,"arg_perigee_deg":104.1751,"mean_anomaly_deg":111.3841,"bstar":-0.033375,"rev_number":600,"period_min":92.528752631979,"perigee_km":397.17661551504,"apogee_km":399.732745897,"semimajor_km":6776.591680706,"source":"CELESTRAK","updated_at":"2026-05-25T13:38:22.030536Z"}}}